Satellite: NO-44
Catalog number: 26931
Epoch time:      11068.63087127
Element set:    0699
Inclination:      067.0496 deg
RA of node:       240.0499 deg
Eccentricity:    0.0007155
Arg of perigee:   271.2828 deg
Mean anomaly:     088.7465 deg
Mean motion:   14.29637628 rev/day
Decay rate:       1.04e-06 rev/day^2
Epoch rev:           49269
Checksum:              342

Satellite: SO-50
Catalog number: 27607
Epoch time:      11068.85608549
Element set:     410
Inclination:      064.5573 deg
RA of node:       269.4926 deg
Eccentricity:    0.0061821
Arg of perigee:   344.2489 deg
Mean anomaly:     015.6664 deg
Mean motion:   14.71659178 rev/day
Decay rate:       1.74e-06 rev/day^2
Epoch rev:           44147
Checksum:              332

Satellite: CO-55
Catalog number: 27844
Epoch time:      11068.88088326
Element set:      61
Inclination:      098.7086 deg
RA of node:       079.0202 deg
Eccentricity:    0.0010228
Arg of perigee:   121.5927 deg
Mean anomaly:     238.6250 deg
Mean motion:   14.20775266 rev/day
Decay rate:       1.29e-06 rev/day^2
Epoch rev:           39881
Checksum:              316

Satellite: CO-57
Catalog number: 27848
Epoch time:      11068.59771423
Element set:       9
Inclination:      098.7141 deg
RA of node:       077.8974 deg
Eccentricity:    0.0010190
Arg of perigee:   127.4884 deg
Mean anomaly:     232.7206 deg
Mean motion:   14.20559288 rev/day
Decay rate:        9.3e-07 rev/day^2
Epoch rev:           39872
Checksum:              339

Satellite: AO-51
Catalog number: 28375
Epoch time:      11068.65996697
Element set:    0915
Inclination:      098.0874 deg
RA of node:       052.3908 deg
Eccentricity:    0.0084873
Arg of perigee:   012.4090 deg
Mean anomaly:     347.9168 deg
Mean motion:   14.40729286 rev/day
Decay rate:        7.3e-07 rev/day^2
Epoch rev:           35173
Checksum:              349

Satellite: CP3
Catalog number: 31129
Epoch time:      11068.60326822
Element set:     815
Inclination:      097.9098 deg
RA of node:       098.5339 deg
Eccentricity:    0.0103022
Arg of perigee:   129.9084 deg
Mean anomaly:     231.1242 deg
Mean motion:   14.52390776 rev/day
Decay rate:       4.90e-06 rev/day^2
Epoch rev:           20638
Checksum:              298

Satellite: CO-65
Catalog number: 32785
Epoch time:      11069.90399412
Element set:     934
Inclination:      097.8595 deg
RA of node:       135.6367 deg
Eccentricity:    0.0015651
Arg of perigee:   133.6580 deg
Mean anomaly:     226.5907 deg
Mean motion:   14.81856460 rev/day
Decay rate:      1.110e-05 rev/day^2
Epoch rev:           15498
Checksum:              337

Satellite: KKS-1
Catalog number: 33493
Epoch time:      11069.15122473
Element set:     380
Inclination:      098.1105 deg
RA of node:       196.4243 deg
Eccentricity:    0.0019903
Arg of perigee:   004.6005 deg
Mean anomaly:     355.5411 deg
Mean motion:   14.81374612 rev/day
Decay rate:      1.443e-05 rev/day^2
Epoch rev:           11485
Checksum:              267

Satellite: SOHLA-1
Catalog number: 33496
Epoch time:      11068.77978970
Element set:     353
Inclination:      098.0700 deg
RA of node:       179.6770 deg
Eccentricity:    0.0007641
Arg of perigee:   080.0426 deg
Mean anomaly:     280.1643 deg
Mean motion:   14.69564633 rev/day
Decay rate:       2.21e-06 rev/day^2
Epoch rev:           11388
Checksum:              313

Satellite: TISAT-1
Catalog number: 36799
Epoch time:      11069.79805214
Element set:     655
Inclination:      098.1128 deg
RA of node:       137.0433 deg
Eccentricity:    0.0014386
Arg of perigee:   232.4365 deg
Mean anomaly:     127.5553 deg
Mean motion:   14.80350683 rev/day
Decay rate:       9.67e-06 rev/day^2
Epoch rev:            3575
Checksum:              319

Satellite: STUDSAT
Catalog number: 36801
Epoch time:      11068.78798064
Element set:    0181
Inclination:      098.1147 deg
RA of node:       135.8695 deg
Eccentricity:    0.0013078
Arg of perigee:   224.7859 deg
Mean anomaly:     135.2297 deg
Mean motion:   14.80088698 rev/day
Decay rate:      2.654e-05 rev/day^2
Epoch rev:           03559
Checksum:              344

Satellite: RAX
Catalog number: 37223
Epoch time:      11047.27696737
Element set:    0084
Inclination:      071.9744 deg
RA of node:       305.5778 deg
Eccentricity:    0.0020243
Arg of perigee:   156.1195 deg
Mean anomaly:     204.0952 deg
Mean motion:   14.77236729 rev/day
Decay rate:       2.10e-06 rev/day^2
Epoch rev:           01303
Checksum:              284

Satellite: OOREOS
Catalog number: 37224
Epoch time:      11043.43618410
Element set:    0081
Inclination:      071.9758 deg
RA of node:       314.1598 deg
Eccentricity:    0.0019424
Arg of perigee:   162.0076 deg
Mean anomaly:     198.1778 deg
Mean motion:   14.76892599 rev/day
Decay rate:       2.19e-06 rev/day^2
Epoch rev:           01245
Checksum:              307

Satellite: NANOSALD
Catalog number: 37225
Epoch time:      11066.57088737
Element set:    0071
Inclination:      071.9766 deg
RA of node:       262.9771 deg
Eccentricity:    0.0028222
Arg of perigee:   073.6605 deg
Mean anomaly:     286.7869 deg
Mean motion:   14.80148112 rev/day
Decay rate:     5.6508e-04 rev/day^2
Epoch rev:           00698
Checksum:              329

